TimeEET,TemperatureF,Dew PointF,Humidity,Sea Level PressureIn,VisibilityMPH,Wind Direction,Wind SpeedMPH,Gust SpeedMPH,PrecipitationIn,Events,Conditions,WindDirDegrees,DateUTC
12:50 AM,48.2,44.6,87,29.92,6.2,Calm,Calm,-,N/A,,Partly Cloudy,0,2012-12-28 22:50:00
1:50 AM,48.2,44.6,87,29.89,6.2,Calm,Calm,-,N/A,,Scattered Clouds,0,2012-12-28 23:50:00
3:50 AM,50.0,46.4,87,29.89,6.2,NNW,5.8,-,N/A,,Scattered Clouds,340,2012-12-29 01:50:00
4:50 AM,50.0,46.4,87,29.89,6.2,Calm,Calm,-,N/A,,Mostly Cloudy,0,2012-12-29 02:50:00
5:20 AM,50.0,46.4,87,29.86,6.2,Calm,Calm,-,N/A,,Mostly Cloudy,0,2012-12-29 03:20:00
5:50 AM,50.0,46.4,87,29.86,6.2,Calm,Calm,-,N/A,,Mostly Cloudy,0,2012-12-29 03:50:00
6:20 AM,50.0,46.4,87,29.86,6.2,Calm,Calm,-,N/A,,Mostly Cloudy,0,2012-12-29 04:20:00
6:50 AM,50.0,46.4,87,29.86,6.2,North,4.6,-,N/A,,Mostly Cloudy,350,2012-12-29 04:50:00
7:20 AM,50.0,46.4,87,29.89,6.2,Calm,Calm,-,N/A,,Mostly Cloudy,0,2012-12-29 05:20:00
7:50 AM,50.0,48.2,94,29.89,6.2,NW,4.6,-,N/A,Rain,Light Rain,310,2012-12-29 05:50:00
8:50 AM,51.8,50.0,94,29.89,6.2,Calm,Calm,-,N/A,,Mostly Cloudy,0,2012-12-29 06:50:00
9:20 AM,55.4,46.4,72,29.89,6.2,NE,8.1,-,N/A,,Mostly Cloudy,50,2012-12-29 07:20:00
9:50 AM,57.2,48.2,72,29.89,6.2,NE,4.6,-,N/A,,Mostly Cloudy,40,2012-12-29 07:50:00
10:20 AM,57.2,46.4,67,29.92,6.2,ENE,11.5,-,N/A,,Mostly Cloudy,60,2012-12-29 08:20:00
10:50 AM,57.2,48.2,72,29.92,6.2,NE,9.2,-,N/A,,Mostly Cloudy,50,2012-12-29 08:50:00
11:20 AM,55.4,50.0,82,29.92,5.0,Calm,Calm,-,N/A,Rain,Light Rain,0,2012-12-29 09:20:00
11:50 AM,55.4,51.8,88,29.92,6.2,Calm,Calm,-,N/A,,Drizzle,0,2012-12-29 09:50:00
12:20 PM,53.6,48.2,82,29.92,4.3,NE,8.1,-,N/A,Rain,Light Rain,50,2012-12-29 10:20:00
12:50 PM,53.6,48.2,82,29.95,4.3,Variable,3.5,-,N/A,Rain,Light Rain,0,2012-12-29 10:50:00
1:50 PM,51.8,48.2,88,29.95,3.7,NNW,4.6,-,N/A,Rain,Rain,330,2012-12-29 11:50:00
2:20 PM,51.8,50.0,94,29.95,3.7,NW,5.8,-,N/A,Rain,Light Rain,310,2012-12-29 12:20:00
2:50 PM,50.0,50.0,100,29.92,3.7,North,8.1,-,N/A,Rain,Light Rain,350,2012-12-29 12:50:00
3:20 PM,50.0,48.2,94,29.92,4.3,Calm,Calm,-,N/A,Rain,Light Rain,0,2012-12-29 13:20:00
3:50 PM,51.8,50.0,94,29.92,5.0,Variable,3.5,-,N/A,,Drizzle,0,2012-12-29 13:50:00
4:20 PM,51.8,48.2,88,29.95,5.0,Variable,3.5,-,N/A,,Drizzle,0,2012-12-29 14:20:00
4:50 PM,51.8,48.2,88,29.95,4.3,Calm,Calm,-,N/A,Rain,Light Rain,0,2012-12-29 14:50:00
5:20 PM,51.8,48.2,88,29.95,4.3,NNW,5.8,-,N/A,Rain,Light Rain,330,2012-12-29 15:20:00
5:50 PM,51.8,48.2,88,29.95,4.3,NNW,4.6,-,N/A,Rain,Light Rain,340,2012-12-29 15:50:00
6:20 PM,51.8,48.2,88,29.95,6.2,Variable,3.5,-,N/A,,Overcast,0,2012-12-29 16:20:00
6:50 PM,51.8,48.2,88,29.95,6.2,North,4.6,-,N/A,,Mostly Cloudy,350,2012-12-29 16:50:00
7:20 PM,53.6,46.4,77,29.95,6.2,Calm,Calm,-,N/A,,Mostly Cloudy,0,2012-12-29 17:20:00
7:50 PM,53.6,46.4,77,29.95,6.2,SE,4.6,-,N/A,,Mostly Cloudy,140,2012-12-29 17:50:00
8:20 PM,53.6,48.2,82,29.98,6.2,Calm,Calm,-,N/A,,Mostly Cloudy,0,2012-12-29 18:20:00
8:50 PM,51.8,48.2,88,29.98,6.2,Calm,Calm,-,N/A,,Light Drizzle,0,2012-12-29 18:50:00
9:20 PM,51.8,50.0,94,29.98,6.2,Calm,Calm,-,N/A,Rain,Light Rain,0,2012-12-29 19:20:00
9:50 PM,51.8,50.0,94,29.98,5.0,WNW,4.6,-,N/A,Rain,Light Rain,290,2012-12-29 19:50:00
10:20 PM,53.6,48.2,82,29.98,5.0,Calm,Calm,-,N/A,Rain,Light Rain,0,2012-12-29 20:20:00
10:50 PM,53.6,50.0,88,30.01,4.3,ESE,10.4,-,N/A,Rain,Rain,110,2012-12-29 20:50:00
11:50 PM,51.8,48.2,88,30.01,4.3,NNW,4.6,-,N/A,Rain,Light Rain,340,2012-12-29 21:50:00